| time (UTC) | temp C | wind direction | speed KPH | gust KPH | rain 1hr cm | rain 24hr cm | rain mn cm | humidity % | barometer mb |
| 20260508073102 | 0 | 45 | 0.0 | 0.0 | 0.00 | 0.00 | 0.00 | 98 | 1016.7 |
| 20260508072556 | 0 | 45 | 0.0 | 0.0 | 0.00 | 0.00 | 0.00 | 98 | 1016.5 |
| 20260508072054 | 0 | 45 | 0.0 | 0.0 | 0.00 | 0.00 | 0.00 | 98 | 1016.6 |
| 20260508071552 | 1 | 45 | 0.0 | 0.0 | 0.00 | 0.00 | 0.00 | 98 | 1016.5 |
| 20260508071050 | 1 | 45 | 0.0 | 0.0 | 0.00 | 0.00 | 0.00 | 98 | 1016.6 |
| 20260508070547 | 1 | 45 | 0.0 | 0.0 | 0.00 | 0.00 | 0.00 | 98 | 1016.6 |
| 20260508070045 | 1 | 45 | 0.0 | 0.0 | 0.00 | 0.00 | 0.00 | 98 | 1016.6 |
| 20260508065543 | 1 | 45 | 0.0 | 0.0 | 0.00 | 0.00 | 0.00 | 98 | 1016.8 |
| 20260508065041 | 1 | 45 | 0.0 | 0.0 | 0.00 | 0.00 | 0.00 | 98 | 1016.8 |
| 20260508064538 | 1 | 45 | 0.0 | 0.0 | 0.00 | 0.00 | 0.00 | 98 | 1016.9 |
| 20260508064036 | 1 | 45 | 0.0 | 0.0 | 0.00 | 0.00 | 0.00 | 98 | 1016.8 |
| 20260508063532 | 1 | 45 | 0.0 | 0.0 | 0.00 | 0.00 | 0.00 | 97 | 1016.6 |
| 20260508063031 | 1 | 45 | 0.0 | 0.0 | 0.00 | 0.00 | 0.00 | 97 | 1016.8 |
| 20260508062528 | 1 | 45 | 0.0 | 0.0 | 0.00 | 0.00 | 0.00 | 97 | 1016.6 |
| 20260508062024 | 1 | 45 | 0.0 | 0.0 | 0.00 | 0.00 | 0.00 | 97 | 1016.7 |
| 20260508061522 | 1 | 45 | 0.0 | 0.0 | 0.00 | 0.00 | 0.00 | 97 | 1016.8 |
| 20260508061019 | 1 | 45 | 0.0 | 0.0 | 0.00 | 0.00 | 0.00 | 97 | 1016.7 |
| 20260508060516 | 1 | 45 | 0.0 | 0.0 | 0.00 | 0.00 | 0.00 | 97 | 1016.8 |
| 20260508060014 | 1 | 45 | 0.0 | 0.0 | 0.00 | 0.00 | 0.00 | 97 | 1016.7 |
| 20260508055509 | 1 | 45 | 0.0 | 0.0 | 0.00 | 0.00 | 0.00 | 97 | 1016.8 |
| 20260508055005 | 1 | 45 | 0.0 | 0.0 | 0.00 | 0.00 | 0.00 | 97 | 1016.7 |
| 20260508054502 | 1 | 45 | 0.0 | 0.0 | 0.00 | 0.00 | 0.00 | 97 | 1017.0 |
| 20260508053959 | 1 | 45 | 0.0 | 0.0 | 0.00 | 0.00 | 0.00 | 97 | 1016.8 |
| 20260508053456 | 1 | 45 | 0.0 | 0.0 | 0.00 | 0.00 | 0.00 | 97 | 1017.0 |
| 20260508052954 | 2 | 45 | 0.0 | 0.0 | 0.00 | 0.00 | 0.00 | 97 | 1016.8 |
| 20260508052451 | 2 | 45 | 0.0 | 0.0 | 0.00 | 0.00 | 0.00 | 97 | 1016.9 |
| 20260508051948 | 2 | 45 | 0.0 | 0.0 | 0.00 | 0.00 | 0.00 | 97 | 1016.8 |
| 20260508051443 | 2 | 45 | 0.0 | 0.0 | 0.00 | 0.00 | 0.00 | 97 | 1016.9 |
| 20260508050939 | 2 | 45 | 0.0 | 0.0 | 0.00 | 0.00 | 0.00 | 96 | 1016.9 |
| 20260508050436 | 2 | 45 | 0.0 | 0.0 | 0.00 | 0.00 | 0.00 | 96 | 1016.7 |
| 20260508045933 | 2 | 45 | 0.0 | 0.0 | 0.00 | 0.00 | 0.00 | 96 | 1016.8 |
| 20260508045431 | 2 | 45 | 0.0 | 0.0 | 0.00 | 0.00 | 0.00 | 96 | 1016.8 |
| 20260508044928 | 2 | 45 | 0.0 | 0.0 | 0.00 | 0.00 | 0.00 | 96 | 1016.8 |
| 20260508044425 | 2 | 45 | 0.0 | 0.0 | 0.00 | 0.00 | 0.00 | 96 | 1016.9 |
| 20260508043920 | 2 | 45 | 0.0 | 0.0 | 0.00 | 0.00 | 0.00 | 95 | 1017.0 |
| 20260508043418 | 2 | 45 | 0.0 | 0.0 | 0.00 | 0.00 | 0.00 | 95 | 1017.0 |
| 20260508042913 | 2 | 45 | 0.0 | 0.0 | 0.00 | 0.00 | 0.00 | 95 | 1016.9 |
| 20260508042406 | 2 | 45 | 0.0 | 0.0 | 0.00 | 0.00 | 0.00 | 95 | 1016.8 |
| 20260508041903 | 2 | 45 | 0.0 | 0.0 | 0.00 | 0.00 | 0.00 | 95 | 1016.8 |
| 20260508041359 | 2 | 45 | 0.0 | 0.0 | 0.00 | 0.00 | 0.00 | 95 | 1016.7 |
| 20260508040855 | 3 | 45 | 0.0 | 0.0 | 0.00 | 0.00 | 0.00 | 95 | 1016.7 |
| 20260508040353 | 3 | 45 | 0.0 | 0.0 | 0.00 | 0.00 | 0.00 | 95 | 1016.6 |
| 20260508035850 | 3 | 45 | 0.0 | 0.0 | 0.00 | 0.00 | 0.00 | 94 | 1016.9 |
| 20260508035347 | 3 | 45 | 0.0 | 0.0 | 0.00 | 0.00 | 0.00 | 94 | 1016.5 |
| 20260508034844 | 3 | 45 | 0.0 | 0.0 | 0.00 | 0.00 | 0.00 | 94 | 1016.5 |
| 20260508034341 | 3 | 45 | 0.0 | 0.0 | 0.00 | 0.00 | 0.00 | 93 | 1016.4 |
| 20260508033838 | 3 | 45 | 0.0 | 0.0 | 0.00 | 0.00 | 0.00 | 93 | 1016.5 |
| 20260508033336 | 3 | 45 | 0.0 | 0.0 | 0.00 | 0.00 | 0.00 | 93 | 1016.5 |
| 20260508032833 | 3 | 45 | 0.0 | 0.0 | 0.00 | 0.00 | 0.00 | 93 | 1016.6 |
| 20260508032331 | 3 | 44 | 0.0 | 0.0 | 0.00 | 0.00 | 0.00 | 92 | 1016.5 |
| 20260508031827 | 4 | 44 | 0.0 | 1.6 | 0.00 | 0.00 | 0.00 | 92 | 1016.4 |
| 20260508031324 | 3 | 48 | 0.0 | 0.0 | 0.00 | 0.00 | 0.00 | 91 | 1016.5 |
| 20260508030820 | 3 | 48 | 0.0 | 0.0 | 0.00 | 0.00 | 0.00 | 91 | 1016.5 |
| 20260508030318 | 3 | 48 | 0.0 | 0.0 | 0.00 | 0.00 | 0.00 | 90 | 1016.4 |
| 20260508025814 | 4 | 48 | 0.0 | 0.0 | 0.00 | 0.00 | 0.00 | 89 | 1016.4 |
| 20260508025312 | 4 | 48 | 0.0 | 0.0 | 0.00 | 0.00 | 0.00 | 89 | 1016.4 |
| 20260508024808 | 5 | 48 | 0.0 | 0.0 | 0.00 | 0.00 | 0.00 | 88 | 1016.5 |
| 20260508024304 | 5 | 48 | 0.0 | 0.0 | 0.00 | 0.00 | 0.00 | 88 | 1016.3 |
| 20260508023802 | 5 | 48 | 0.0 | 0.0 | 0.00 | 0.00 | 0.00 | 87 | 1016.4 |
| 20260508023258 | 5 | 48 | 0.0 | 0.0 | 0.00 | 0.00 | 0.00 | 86 | 1016.3 |
| 20260508022754 | 5 | 48 | 0.0 | 0.0 | 0.00 | 0.00 | 0.00 | 84 | 1016.4 |
| 20260508022251 | 5 | 48 | 0.0 | 0.0 | 0.00 | 0.00 | 0.00 | 84 | 1016.2 |
| 20260508021748 | 6 | 48 | 0.0 | 0.0 | 0.00 | 0.00 | 0.00 | 83 | 1016.0 |
| 20260508021243 | 6 | 48 | 0.0 | 0.0 | 0.00 | 0.00 | 0.00 | 82 | 1016.0 |
| 20260508020740 | 6 | 48 | 0.0 | 0.0 | 0.00 | 0.00 | 0.00 | 80 | 1015.8 |
| 20260508020238 | 6 | 48 | 0.0 | 0.0 | 0.00 | 0.00 | 0.00 | 80 | 1016.0 |
| 20260508015735 | 6 | 48 | 0.0 | 1.6 | 0.00 | 0.00 | 0.00 | 79 | 1015.8 |
| 20260508015232 | 6 | 45 | 0.0 | 0.0 | 0.00 | 0.00 | 0.00 | 75 | 1015.9 |
| 20260508014729 | 7 | 45 | 0.0 | 0.0 | 0.00 | 0.00 | 0.00 | 76 | 1015.8 |
| 20260508014226 | 7 | 45 | 0.0 | 0.0 | 0.00 | 0.00 | 0.00 | 74 | 1015.9 |
| 20260508013721 | 7 | 45 | 0.0 | 0.0 | 0.00 | 0.00 | 0.00 | 73 | 1015.9 |
| 20260508013218 | 7 | 45 | 0.0 | 0.0 | 0.00 | 0.00 | 0.00 | 71 | 1015.9 |
| 20260508012716 | 7 | 45 | 0.0 | 0.0 | 0.00 | 0.00 | 0.00 | 67 | 1015.5 |
| 20260508012212 | 8 | 45 | 0.0 | 0.0 | 0.00 | 0.00 | 0.00 | 68 | 1015.4 |
| 20260508011711 | 8 | 45 | 0.0 | 0.0 | 0.00 | 0.00 | 0.00 | 65 | 1015.3 |
| 20260508011208 | 9 | 45 | 0.0 | 0.0 | 0.00 | 0.00 | 0.00 | 60 | 1015.3 |
| 20260508010704 | 10 | 45 | 0.0 | 1.6 | 0.00 | 0.00 | 0.00 | 61 | 1015.4 |
| 20260508010202 | 10 | 42 | 0.0 | 0.0 | 0.00 | 0.00 | 0.00 | 60 | 1015.3 |
| 20260508005659 | 10 | 52 | 0.0 | 0.0 | 0.00 | 0.00 | 0.00 | 55 | 1015.2 |
| 20260508005156 | 11 | 40 | 0.0 | 0.0 | 0.00 | 0.00 | 0.00 | 52 | 1015.2 |
| 20260508004651 | 11 | 70 | 0.0 | 3.2 | 0.00 | 0.00 | 0.00 | 51 | 1015.2 |
| 20260508004148 | 11 | 41 | 1.6 | 1.6 | 0.00 | 0.00 | 0.00 | 50 | 1015.0 |
| 20260508003645 | 12 | 37 | 3.2 | 3.2 | 0.00 | 0.00 | 0.00 | 48 | 1014.9 |
| 20260508003142 | 12 | 59 | 1.6 | 4.8 | 0.00 | 0.00 | 0.00 | 47 | 1014.8 |
| 20260508002638 | 12 | 64 | 4.8 | 9.7 | 0.00 | 0.00 | 0.00 | 46 | 1015.0 |
| 20260508002137 | 12 | 46 | 3.2 | 4.8 | 0.00 | 0.00 | 0.00 | 46 | 1015.0 |
| 20260508001631 | 12 | 49 | 8.0 | 9.7 | 0.00 | 0.00 | 0.00 | 43 | 1014.9 |
| 20260508001128 | 12 | 39 | 4.8 | 4.8 | 0.00 | 0.00 | 0.00 | 43 | 1014.7 |
| 20260508000623 | 13 | 57 | 4.8 | 9.7 | 0.00 | 0.00 | 0.00 | 43 | 1014.7 |
| 20260508000121 | 13 | 47 | 6.4 | 14.5 | 0.00 | 0.00 | 0.00 | 40 | 1014.5 |
| 20260507235618 | 13 | 86 | 4.8 | 6.4 | 0.00 | 0.00 | 0.00 | 38 | 1014.4 |
| 20260507235115 | 14 | 16 | 8.0 | 20.9 | 0.00 | 0.00 | 0.00 | 40 | 1014.4 |
| 20260507234612 | 14 | 74 | 8.0 | 9.7 | 0.00 | 0.00 | 0.00 | 38 | 1014.3 |
| 20260507234108 | 14 | 120 | 9.7 | 17.7 | 0.00 | 0.00 | 0.00 | 36 | 1014.4 |
| 20260507233605 | 15 | 74 | 11.3 | 14.5 | 0.00 | 0.00 | 0.00 | 38 | 1014.5 |
| 20260507233104 | 15 | 65 | 8.0 | 11.3 | 0.00 | 0.00 | 0.00 | 36 | 1014.1 |
| 20260507232600 | 15 | 59 | 6.4 | 12.9 | 0.00 | 0.00 | 0.00 | 38 | 1014.3 |
| 20260507232057 | 15 | 49 | 6.4 | 14.5 | 0.00 | 0.00 | 0.00 | 38 | 1013.9 |
| 20260507231553 | 15 | 53 | 1.6 | 14.5 | 0.00 | 0.00 | 0.00 | 39 | 1014.0 |
| 20260507231051 | 15 | 40 | 14.5 | 17.7 | 0.00 | 0.00 | 0.00 | 36 | 1013.9 |
| 20260507230547 | 15 | 45 | 9.7 | 16.1 | 0.00 | 0.00 | 0.00 | 35 | 1013.8 |
| 20260507230044 | 15 | 63 | 8.0 | 17.7 | 0.00 | 0.00 | 0.00 | 37 | 1013.8 |
| 20260507225538 | 15 | 96 | 11.3 | 16.1 | 0.00 | 0.00 | 0.00 | 37 | 1013.9 |
| 20260507225035 | 16 | 62 | 12.9 | 14.5 | 0.00 | 0.00 | 0.00 | 36 | 1013.6 |
| 20260507224531 | 16 | 68 | 11.3 | 12.9 | 0.00 | 0.00 | 0.00 | 36 | 1013.7 |
| 20260507224028 | 16 | 46 | 6.4 | 12.9 | 0.00 | 0.00 | 0.00 | 40 | 1013.5 |
| 20260507223524 | 17 | 69 | 8.0 | 14.5 | 0.00 | 0.00 | 0.00 | 37 | 1013.5 |
| 20260507223021 | 16 | 59 | 4.8 | 9.7 | 0.00 | 0.00 | 0.00 | 34 | 1013.3 |
| 20260507222518 | 16 | 42 | 9.7 | 12.9 | 0.00 | 0.00 | 0.00 | 35 | 1013.5 |
| 20260507222014 | 16 | 86 | 9.7 | 20.9 | 0.00 | 0.00 | 0.00 | 36 | 1013.3 |
| 20260507221511 | 16 | 87 | 3.2 | 16.1 | 0.00 | 0.00 | 0.00 | 38 | 1013.4 |
| 20260507221008 | 17 | 38 | 12.9 | 14.5 | 0.00 | 0.00 | 0.00 | 36 | 1013.5 |
| 20260507220505 | 16 | 52 | 11.3 | 14.5 | 0.00 | 0.00 | 0.00 | 35 | 1013.5 |
| 20260507220002 | 16 | 69 | 11.3 | 17.7 | 0.00 | 0.00 | 0.00 | 37 | 1013.3 |
| 20260507215458 | 15 | 65 | 4.8 | 17.7 | 0.00 | 0.00 | 0.00 | 36 | 1013.2 |
| 20260507214956 | 16 | 55 | 8.0 | 14.5 | 0.00 | 0.00 | 0.00 | 36 | 1013.3 |
| 20260507214453 | 17 | 47 | 9.7 | 12.9 | 0.00 | 0.00 | 0.00 | 34 | 1013.0 |
| 20260507213949 | 17 | 55 | 14.5 | 16.1 | 0.00 | 0.00 | 0.00 | 36 | 1013.1 |
| 20260507213446 | 17 | 44 | 11.3 | 22.5 | 0.00 | 0.00 | 0.00 | 36 | 1012.9 |
| 20260507212943 | 16 | 58 | 14.5 | 17.7 | 0.00 | 0.00 | 0.00 | 37 | 1013.0 |
| 20260507212438 | 17 | 0 | 6.4 | 6.4 | 0.00 | 0.00 | 0.00 | 36 | 1013.1 |
| 20260507211936 | 16 | 124 | 9.7 | 14.5 | 0.00 | 0.00 | 0.00 | 34 | 1012.7 |
| 20260507211432 | 17 | 38 | 17.7 | 25.7 | 0.00 | 0.00 | 0.00 | 32 | 1012.8 |
| 20260507210929 | 16 | 36 | 11.3 | 20.9 | 0.00 | 0.00 | 0.00 | 38 | 1012.8 |
| 20260507210426 | 16 | 75 | 12.9 | 16.1 | 0.00 | 0.00 | 0.00 | 35 | 1012.8 |
| 20260507205923 | 17 | 356 | 4.8 | 16.1 | 0.00 | 0.00 | 0.00 | 39 | 1012.8 |
| 20260507205420 | 17 | 39 | 11.3 | 14.5 | 0.00 | 0.00 | 0.00 | 36 | 1012.5 |
| 20260507204916 | 17 | 96 | 8.0 | 16.1 | 0.00 | 0.00 | 0.00 | 36 | 1012.6 |
| 20260507204412 | 17 | 23 | 4.8 | 12.9 | 0.00 | 0.00 | 0.00 | 37 | 1012.6 |
| 20260507203910 | 17 | 62 | 9.7 | 14.5 | 0.00 | 0.00 | 0.00 | 33 | 1012.5 |
| 20260507203408 | 17 | 102 | 6.4 | 17.7 | 0.00 | 0.00 | 0.00 | 40 | 1012.5 |
| 20260507202904 | 17 | 97 | 14.5 | 20.9 | 0.00 | 0.00 | 0.00 | 37 | 1012.6 |
| 20260507202400 | 17 | 31 | 6.4 | 14.5 | 0.00 | 0.00 | 0.00 | 36 | 1012.6 |
| 20260507201856 | 17 | 58 | 11.3 | 14.5 | 0.00 | 0.00 | 0.00 | 37 | 1012.6 |
| 20260507201351 | 16 | 41 | 17.7 | 22.5 | 0.00 | 0.00 | 0.00 | 38 | 1012.7 |
| 20260507200848 | 16 | 68 | 8.0 | 12.9 | 0.00 | 0.00 | 0.00 | 38 | 1012.8 |
| 20260507200344 | 17 | 50 | 12.9 | 16.1 | 0.00 | 0.00 | 0.00 | 41 | 1012.6 |
| 20260507195840 | 17 | 33 | 9.7 | 12.9 | 0.00 | 0.00 | 0.00 | 36 | 1012.8 |
| 20260507195338 | 16 | 94 | 4.8 | 6.4 | 0.00 | 0.00 | 0.00 | 39 | 1012.9 |
| 20260507194835 | 16 | 41 | 6.4 | 12.9 | 0.00 | 0.00 | 0.00 | 43 | 1013.0 |
| 20260507194331 | 16 | 40 | 9.7 | 17.7 | 0.00 | 0.00 | 0.00 | 41 | 1013.0 |
| 20260507193828 | 16 | 63 | 16.1 | 22.5 | 0.00 | 0.00 | 0.00 | 39 | 1013.2 |
| 20260507193325 | 17 | 82 | 3.2 | 14.5 | 0.00 | 0.00 | 0.00 | 38 | 1013.4 |
| 20260507192820 | 17 | 38 | 8.0 | 14.5 | 0.00 | 0.00 | 0.00 | 42 | 1013.1 |
| 20260507192318 | 17 | 32 | 4.8 | 11.3 | 0.00 | 0.00 | 0.00 | 42 | 1013.3 |
| 20260507191814 | 16 | 40 | 11.3 | 14.5 | 0.00 | 0.00 | 0.00 | 43 | 1013.8 |
| 20260507191310 | 15 | 20 | 3.2 | 6.4 | 0.00 | 0.00 | 0.00 | 44 | 1013.4 |
| 20260507190808 | 15 | 94 | 11.3 | 14.5 | 0.00 | 0.00 | 0.00 | 39 | 1013.5 |
| 20260507190306 | 15 | 26 | 11.3 | 14.5 | 0.00 | 0.00 | 0.00 | 42 | 1013.4 |
| 20260507185804 | 16 | 71 | 12.9 | 16.1 | 0.00 | 0.00 | 0.00 | 41 | 1013.5 |
| 20260507185300 | 15 | 4 | 4.8 | 11.3 | 0.00 | 0.00 | 0.00 | 43 | 1013.6 |
| 20260507184758 | 15 | 48 | 6.4 | 11.3 | 0.00 | 0.00 | 0.00 | 46 | 1013.6 |
| 20260507184256 | 15 | 57 | 6.4 | 12.9 | 0.00 | 0.00 | 0.00 | 39 | 1013.7 |
| 20260507183752 | 16 | 77 | 9.7 | 16.1 | 0.00 | 0.00 | 0.00 | 42 | 1013.7 |
| 20260507183250 | 15 | 88 | 12.9 | 20.9 | 0.00 | 0.00 | 0.00 | 43 | 1013.5 |
| 20260507182747 | 16 | 94 | 1.6 | 12.9 | 0.00 | 0.00 | 0.00 | 40 | 1013.7 |
| 20260507182242 | 15 | 83 | 8.0 | 12.9 | 0.00 | 0.00 | 0.00 | 45 | 1013.6 |
| 20260507181739 | 16 | 18 | 9.7 | 12.9 | 0.00 | 0.00 | 0.00 | 43 | 1013.6 |
| 20260507181235 | 16 | 54 | 6.4 | 11.3 | 0.00 | 0.00 | 0.00 | 52 | 1013.6 |
| 20260507180732 | 15 | 72 | 8.0 | 16.1 | 0.00 | 0.00 | 0.00 | 48 | 1013.7 |
| 20260507180229 | 16 | 55 | 3.2 | 11.3 | 0.00 | 0.00 | 0.00 | 43 | 1013.7 |
| 20260507175724 | 16 | 121 | 3.2 | 9.7 | 0.00 | 0.00 | 0.00 | 44 | 1013.6 |
| 20260507175221 | 16 | 34 | 6.4 | 11.3 | 0.00 | 0.00 | 0.00 | 41 | 1013.9 |
| 20260507174719 | 16 | 26 | 8.0 | 24.1 | 0.00 | 0.00 | 0.00 | 41 | 1013.8 |
| 20260507174217 | 15 | 34 | 3.2 | 9.7 | 0.00 | 0.00 | 0.00 | 42 | 1013.9 |
| 20260507173714 | 15 | 32 | 6.4 | 11.3 | 0.00 | 0.00 | 0.00 | 43 | 1013.9 |
| 20260507173211 | 16 | 1 | 4.8 | 14.5 | 0.00 | 0.00 | 0.00 | 41 | 1014.0 |
| 20260507172708 | 16 | 45 | 8.0 | 16.1 | 0.00 | 0.00 | 0.00 | 42 | 1014.1 |
| 20260507172204 | 16 | 121 | 3.2 | 11.3 | 0.00 | 0.00 | 0.00 | 44 | 1014.1 |
| 20260507171658 | 15 | 102 | 3.2 | 6.4 | 0.00 | 0.00 | 0.00 | 54 | 1014.0 |
| 20260507171155 | 14 | 51 | 6.4 | 14.5 | 0.00 | 0.00 | 0.00 | 50 | 1014.4 |
| 20260507170653 | 15 | 32 | 8.0 | 12.9 | 0.00 | 0.00 | 0.00 | 46 | 1014.6 |
| 20260507170150 | 15 | 76 | 4.8 | 11.3 | 0.00 | 0.00 | 0.00 | 45 | 1014.4 |
| 20260507165645 | 15 | 53 | 6.4 | 9.7 | 0.00 | 0.00 | 0.00 | 47 | 1014.3 |
| 20260507165142 | 15 | 79 | 8.0 | 11.3 | 0.00 | 0.00 | 0.00 | 52 | 1014.7 |
| 20260507164637 | 15 | 47 | 8.0 | 16.1 | 0.00 | 0.00 | 0.00 | 53 | 1014.6 |
| 20260507164135 | 15 | 306 | 4.8 | 16.1 | 0.00 | 0.00 | 0.00 | 54 | 1014.7 |
| 20260507163632 | 15 | 96 | 0.0 | 6.4 | 0.00 | 0.00 | 0.00 | 50 | 1014.6 |
| 20260507163130 | 14 | 119 | 6.4 | 9.7 | 0.00 | 0.00 | 0.00 | 49 | 1014.7 |
| 20260507162626 | 15 | 48 | 8.0 | 12.9 | 0.00 | 0.00 | 0.00 | 51 | 1014.7 |
| 20260507162122 | 15 | 221 | 4.8 | 6.4 | 0.00 | 0.00 | 0.00 | 51 | 1014.7 |
| 20260507161618 | 15 | 57 | 4.8 | 6.4 | 0.00 | 0.00 | 0.00 | 49 | 1014.7 |
| 20260507161115 | 15 | 36 | 4.8 | 12.9 | 0.00 | 0.00 | 0.00 | 50 | 1014.8 |
| 20260507160611 | 14 | 74 | 9.7 | 14.5 | 0.00 | 0.00 | 0.00 | 52 | 1014.9 |
| 20260507160108 | 15 | 105 | 0.0 | 3.2 | 0.00 | 0.00 | 0.00 | 47 | 1014.8 |
| 20260507155603 | 15 | 244 | 3.2 | 3.2 | 0.00 | 0.00 | 0.00 | 55 | 1014.8 |
| 20260507155100 | 14 | 36 | 6.4 | 11.3 | 0.00 | 0.00 | 0.00 | 51 | 1015.0 |
| 20260507154557 | 14 | 101 | 0.0 | 4.8 | 0.00 | 0.00 | 0.00 | 51 | 1015.0 |
| 20260507154054 | 14 | 65 | 9.7 | 14.5 | 0.00 | 0.00 | 0.00 | 49 | 1015.0 |
| 20260507153551 | 14 | 30 | 3.2 | 6.4 | 0.00 | 0.00 | 0.00 | 48 | 1015.1 |
| 20260507153047 | 15 | 52 | 1.6 | 9.7 | 0.00 | 0.00 | 0.00 | 50 | 1015.1 |
| 20260507152543 | 14 | 71 | 4.8 | 12.9 | 0.00 | 0.00 | 0.00 | 47 | 1015.1 |
| 20260507152040 | 13 | 57 | 6.4 | 9.7 | 0.00 | 0.00 | 0.00 | 57 | 1015.1 |
| 20260507151536 | 14 | 79 | 6.4 | 11.3 | 0.00 | 0.00 | 0.00 | 50 | 1015.0 |
| 20260507151033 | 14 | 120 | 1.6 | 6.4 | 0.00 | 0.00 | 0.00 | 51 | 1015.0 |
| 20260507150530 | 13 | 67 | 3.2 | 6.4 | 0.00 | 0.00 | 0.00 | 56 | 1015.1 |
| 20260507150027 | 14 | 141 | 6.4 | 9.7 | 0.00 | 0.00 | 0.00 | 52 | 1015.4 |
| 20260507145521 | 15 | 126 | 4.8 | 9.7 | 0.00 | 0.00 | 0.00 | 52 | 1015.4 |
| 20260507145020 | 14 | 41 | 3.2 | 3.2 | 0.00 | 0.00 | 0.00 | 51 | 1015.3 |
| 20260507144516 | 13 | 75 | 4.8 | 4.8 | 0.00 | 0.00 | 0.00 | 53 | 1015.4 |
| 20260507144014 | 13 | 90 | 8.0 | 9.7 | 0.00 | 0.00 | 0.00 | 53 | 1015.4 |
| 20260507143511 | 13 | 84 | 9.7 | 11.3 | 0.00 | 0.00 | 0.00 | 53 | 1015.5 |
| 20260507143008 | 13 | 101 | 4.8 | 11.3 | 0.00 | 0.00 | 0.00 | 56 | 1015.5 |
| 20260507142503 | 13 | 116 | 4.8 | 11.3 | 0.00 | 0.00 | 0.00 | 57 | 1015.5 |
| 20260507142000 | 13 | 87 | 4.8 | 9.7 | 0.00 | 0.00 | 0.00 | 56 | 1015.7 |
| 20260507141456 | 13 | 57 | 9.7 | 12.9 | 0.00 | 0.00 | 0.00 | 55 | 1015.8 |
| 20260507140953 | 13 | 38 | 1.6 | 6.4 | 0.00 | 0.00 | 0.00 | 56 | 1015.7 |
| 20260507140450 | 13 | 86 | 8.0 | 12.9 | 0.00 | 0.00 | 0.00 | 58 | 1015.6 |
| 20260507135947 | 13 | 57 | 4.8 | 6.4 | 0.00 | 0.00 | 0.00 | 56 | 1015.9 |
| 20260507135444 | 13 | 98 | 3.2 | 4.8 | 0.00 | 0.00 | 0.00 | 57 | 1015.9 |
| 20260507134941 | 13 | 68 | 6.4 | 9.7 | 0.00 | 0.00 | 0.00 | 59 | 1015.9 |
| 20260507134438 | 13 | 29 | 1.6 | 4.8 | 0.00 | 0.00 | 0.00 | 56 | 1016.0 |
| 20260507133934 | 13 | 29 | 3.2 | 3.2 | 0.00 | 0.00 | 0.00 | 57 | 1016.1 |
| 20260507133430 | 13 | 67 | 3.2 | 11.3 | 0.00 | 0.00 | 0.00 | 57 | 1016.3 |
| 20260507132929 | 14 | 42 | 0.0 | 3.2 | 0.00 | 0.00 | 0.00 | 57 | 1016.3 |
| 20260507132424 | 13 | 35 | 1.6 | 3.2 | 0.00 | 0.00 | 0.00 | 57 | 1016.2 |
| 20260507131921 | 13 | 43 | 0.0 | 1.6 | 0.00 | 0.00 | 0.00 | 66 | 1016.1 |
| 20260507131418 | 13 | 40 | 0.0 | 3.2 | 0.00 | 0.00 | 0.00 | 65 | 1016.3 |
| 20260507130915 | 13 | 157 | 1.6 | 3.2 | 0.00 | 0.00 | 0.00 | 73 | 1016.1 |
| 20260507130412 | 13 | 183 | 0.0 | 1.6 | 0.00 | 0.00 | 0.00 | 73 | 1016.2 |
| 20260507125911 | 12 | 210 | 0.0 | 1.6 | 0.00 | 0.00 | 0.00 | 77 | 1016.3 |
| 20260507125409 | 12 | 107 | 1.6 | 1.6 | 0.00 | 0.00 | 0.00 | 78 | 1016.2 |
| 20260507124906 | 12 | 55 | 1.6 | 1.6 | 0.00 | 0.00 | 0.00 | 85 | 1016.2 |
| 20260507124401 | 11 | 149 | 0.0 | 0.0 | 0.00 | 0.00 | 0.00 | 94 | 1016.2 |
| 20260507123900 | 11 | 162 | 0.0 | 0.0 | 0.00 | 0.00 | 0.00 | 96 | 1016.0 |
| 20260507123357 | 11 | 86 | 0.0 | 0.0 | 0.00 | 0.00 | 0.00 | 97 | 1016.0 |
| 20260507122853 | 10 | 130 | 0.0 | 0.0 | 0.00 | 0.00 | 0.00 | 98 | 1016.5 |
| 20260507122349 | 9 | 224 | 0.0 | 0.0 | 0.00 | 0.00 | 0.00 | 98 | 1016.1 |
| 20260507121845 | 8 | 187 | 0.0 | 0.0 | 0.00 | 0.00 | 0.00 | 98 | 1016.3 |
| 20260507121341 | 8 | 152 | 0.0 | 0.0 | 0.00 | 0.00 | 0.00 | 98 | 1016.3 |
| 20260507120837 | 7 | 186 | 0.0 | 0.0 | 0.00 | 0.00 | 0.00 | 98 | 1016.3 |
| 20260507120334 | 7 | 89 | 0.0 | 0.0 | 0.00 | 0.00 | 0.00 | 98 | 1016.2 |
| 20260507115830 | 7 | 205 | 0.0 | 0.0 | 0.00 | 0.00 | 0.00 | 98 | 1016.4 |
| 20260507115326 | 6 | 162 | 0.0 | 0.0 | 0.00 | 0.00 | 0.00 | 98 | 1016.3 |
| 20260507114822 | 6 | 67 | 0.0 | 0.0 | 0.00 | 0.00 | 0.00 | 98 | 1016.2 |
| 20260507114319 | 6 | 59 | 0.0 | 0.0 | 0.00 | 0.00 | 0.00 | 98 | 1016.1 |
| 20260507113817 | 5 | 59 | 0.0 | 0.0 | 0.00 | 0.00 | 0.00 | 98 | 1016.0 |
| 20260507113313 | 5 | 59 | 0.0 | 0.0 | 0.00 | 0.00 | 0.00 | 98 | 1016.0 |
| 20260507112811 | 5 | 59 | 0.0 | 0.0 | 0.00 | 0.00 | 0.00 | 98 | 1016.2 |
| 20260507112308 | 5 | 59 | 0.0 | 0.0 | 0.00 | 0.00 | 0.00 | 98 | 1016.0 |
| 20260507111806 | 5 | 58 | 0.0 | 0.0 | 0.00 | 0.00 | 0.00 | 98 | 1016.1 |
| 20260507111302 | 5 | 58 | 0.0 | 0.0 | 0.00 | 0.00 | 0.00 | 98 | 1015.8 |
| 20260507110758 | 5 | 58 | 0.0 | 0.0 | 0.00 | 0.00 | 0.00 | 98 | 1016.1 |
| 20260507110255 | 5 | 58 | 0.0 | 0.0 | 0.00 | 0.00 | 0.00 | 98 | 1015.9 |
| 20260507105752 | 5 | 58 | 0.0 | 0.0 | 0.00 | 0.00 | 0.00 | 98 | 1015.9 |
| 20260507105247 | 5 | 58 | 0.0 | 0.0 | 0.00 | 0.00 | 0.00 | 98 | 1015.6 |
| 20260507104745 | 5 | 57 | 0.0 | 0.0 | 0.00 | 0.00 | 0.00 | 98 | 1015.7 |
| 20260507104242 | 5 | 57 | 0.0 | 0.0 | 0.00 | 0.00 | 0.00 | 98 | 1015.6 |
| 20260507103737 | 5 | 56 | 0.0 | 0.0 | 0.00 | 0.00 | 0.00 | 98 | 1015.5 |
| 20260507103234 | 5 | 57 | 0.0 | 0.0 | 0.00 | 0.00 | 0.00 | 98 | 1015.4 |
| 20260507102730 | 5 | 57 | 0.0 | 0.0 | 0.00 | 0.00 | 0.00 | 98 | 1015.3 |
| 20260507102227 | 5 | 57 | 0.0 | 0.0 | 0.00 | 0.00 | 0.00 | 98 | 1015.4 |
| 20260507101723 | 5 | 57 | 0.0 | 0.0 | 0.00 | 0.00 | 0.00 | 97 | 1015.6 |
| 20260507101219 | 5 | 57 | 0.0 | 0.0 | 0.00 | 0.00 | 0.00 | 97 | 1015.4 |
| 20260507100716 | 5 | 57 | 0.0 | 0.0 | 0.00 | 0.00 | 0.00 | 97 | 1015.4 |
| 20260507100214 | 5 | 57 | 0.0 | 0.0 | 0.00 | 0.00 | 0.00 | 97 | 1015.2 |
| 20260507095712 | 5 | 57 | 0.0 | 0.0 | 0.00 | 0.00 | 0.00 | 97 | 1015.4 |
| 20260507095208 | 5 | 57 | 0.0 | 0.0 | 0.00 | 0.00 | 0.00 | 97 | 1015.1 |
| 20260507094705 | 5 | 57 | 0.0 | 0.0 | 0.00 | 0.00 | 0.00 | 97 | 1015.3 |
| 20260507094202 | 5 | 57 | 0.0 | 0.0 | 0.00 | 0.00 | 0.00 | 97 | 1015.3 |
| 20260507093659 | 5 | 57 | 0.0 | 0.0 | 0.00 | 0.00 | 0.00 | 97 | 1015.2 |
| 20260507093158 | 5 | 57 | 0.0 | 0.0 | 0.00 | 0.00 | 0.00 | 97 | 1015.3 |
| 20260507092654 | 5 | 57 | 0.0 | 0.0 | 0.00 | 0.00 | 0.00 | 97 | 1015.4 |
| 20260507092151 | 5 | 57 | 0.0 | 0.0 | 0.00 | 0.00 | 0.00 | 97 | 1015.3 |
| 20260507091647 | 5 | 57 | 0.0 | 0.0 | 0.00 | 0.00 | 0.00 | 97 | 1015.3 |
| 20260507091144 | 5 | 57 | 0.0 | 0.0 | 0.00 | 0.00 | 0.00 | 96 | 1015.2 |
| 20260507090639 | 5 | 57 | 0.0 | 0.0 | 0.00 | 0.00 | 0.00 | 96 | 1015.1 |
| 20260507090137 | 5 | 57 | 0.0 | 0.0 | 0.00 | 0.00 | 0.00 | 96 | 1014.9 |
| 20260507085634 | 5 | 57 | 0.0 | 0.0 | 0.00 | 0.00 | 0.00 | 96 | 1015.0 |
| 20260507085130 | 5 | 57 | 0.0 | 0.0 | 0.00 | 0.00 | 0.00 | 96 | 1015.2 |
| 20260507084627 | 5 | 57 | 0.0 | 0.0 | 0.00 | 0.00 | 0.00 | 96 | 1015.4 |
| 20260507084124 | 6 | 57 | 0.0 | 0.0 | 0.00 | 0.00 | 0.00 | 95 | 1015.4 |
| 20260507083620 | 6 | 57 | 0.0 | 0.0 | 0.00 | 0.00 | 0.00 | 95 | 1015.4 |
| 20260507083118 | 6 | 57 | 0.0 | 0.0 | 0.00 | 0.00 | 0.00 | 95 | 1015.3 |
| 20260507082613 | 6 | 56 | 0.0 | 0.0 | 0.00 | 0.00 | 0.00 | 95 | 1015.7 |
| 20260507082110 | 6 | 56 | 0.0 | 0.0 | 0.00 | 0.00 | 0.00 | 95 | 1015.3 |
| 20260507081606 | 6 | 56 | 0.0 | 0.0 | 0.00 | 0.00 | 0.00 | 94 | 1015.4 |
| 20260507081103 | 6 | 56 | 0.0 | 0.0 | 0.00 | 0.00 | 0.00 | 94 | 1015.3 |
| 20260507080559 | 7 | 56 | 0.0 | 0.0 | 0.00 | 0.00 | 0.00 | 94 | 1015.4 |
| 20260507080056 | 7 | 56 | 0.0 | 0.0 | 0.00 | 0.00 | 0.00 | 93 | 1015.4 |
| 20260507075551 | 7 | 56 | 0.0 | 0.0 | 0.00 | 0.00 | 0.00 | 93 | 1015.4 |
| 20260507075047 | 7 | 56 | 0.0 | 0.0 | 0.00 | 0.00 | 0.00 | 93 | 1015.4 |
| 20260507074544 | 7 | 56 | 0.0 | 0.0 | 0.00 | 0.00 | 0.00 | 92 | 1015.2 |
| 20260507074043 | 8 | 56 | 0.0 | 0.0 | 0.00 | 0.00 | 0.00 | 92 | 1015.2 |
| 20260507073538 | 8 | 56 | 0.0 | 0.0 | 0.00 | 0.00 | 0.00 | 91 | 1015.1 |